"2010-07-13 14:29:30",8,5.274,257,1.036,0.053,21.92,110.2672,25.58,26.59,16.04,0,111.5,13.09,26.42,219.0
"2010-07-13 14:30:00",9,4.919,253.7,1.152,0.167,22.13,110.2915,25.64,26.59,15.97,0,111.5,13.09,26.48,215.7
"2010-07-13 14:30:30",10,4.424,252.2,1.031,0.126,22.17,110.321,25.72,26.6,15.88,0,111.5,13.09,26.56,214.2
"2010-07-13 14:31:00",11,4.195,250.3,1.746,0.09,22.15,110.358,25.81,26.65,15.72,0,111.5,13.09,26.66,212.3
"2010-07-13 14:31:30",12,3.889,246.6,0.956,0.132,22.05,110.3799,25.87,26.69,15.72,0,111.5,13.09,26.71,208.6
"2010-07-13 14:32:00",13,4,249.4,2.377,0.083,22.05,110.4038,25.93,26.72,15.6,0,111.5,13.08,26.77,211.4
"2010-07-13 14:32:30",14,4.229,253.9,1.163,0.164,22.13,110.4242,25.98,26.76,15.35,0,111.5,13.08,26.83,215.9
"2010-07-13 14:33:00",15,4.388,255,1.627,0.174,22.12,110.4362,26.02,26.81,15.11,0,111.5,13.08,26.86,217.0
"2010-07-13 14:33:30",16,4.454,254.3,1.283,0.093,22.05,110.4575,26.07,26.84,15.01,0,111.5,13.07,26.91,216.3
"2010-07-13 14:34:00",17,4.396,253.9,0.88,0.118,22.04,110.4645,26.09,26.88,14.95,0,111.5,13.07,26.93,215.9
"2010-07-13 14:34:30",18,4.329,253.1,1.25,0.072,22,110.4657,26.09,26.89,14.96,0,111.5,13.07,26.93,215.1
"2010-07-13 14:35:00",19,4.433,249.7,1.14,0.114,21.91,110.463,26.08,26.91,15.19,0,111.5,13.07,26.93,211.7
"2010-07-13 14:35:30",20,4.27,250.5,2.748,0.213,21.78,110.4543,26.06,26.92,15.37,0,111.5,13.07,26.90,212.5
"2010-07-13 14:36:00",21,4.44,247.7,1.795,0.114,21.7,110.4393,26.02,26.92,15.54,0,111.5,13.07,26.87,209.7
"2010-07-13 14:36:30",22,4.735,247.3,2.498,0.195,21.81,110.4192,25.97,26.89,15.46,0,111.5,13.07,26.81,209.3
"2010-07-13 14:37:00",23,5.139,235.7,4.694,0.188,21.71,110.4167,25.97,26.88,15.65,0,111.5,13.07,26.81,197.7
"2010-07-13 14:37:30",24,5.029,238,2.439,0.148,21.74,110.4105,25.95,26.85,15.64,0,111.5,13.07,26.79,200.0
"2010-07-13 14:38:00",25,4.91,242.7,3.451,0.152,21.83,110.3962,25.91,26.85,15.54,0,111.5,13.08,26.76,204.7
"2010-07-13 14:38:30",26,4.64,245.9,1.579,0.054,21.83,110.392,25.9,26.84,15.47,0,111.5,13.08,26.74,207.9
"2010-07-13 14:39:00",27,4.441,242.9,1.849,0.108,21.79,110.3906,25.9,26.83,15.8,0,111.5,13.08,26.74,204.9
"2010-07-13 14:39:30",28,4.474,247.3,0.903,0.046,21.79,110.3836,25.88,26.82,15.51,0,111.5,13.07,26.72,209.3
"2010-07-13 14:40:00",29,4.361,248.1,0.929,0.064,21.76,110.3889,25.89,26.81,15.5,0,111.5,13.07,26.74,210.1
"2010-07-13 14:40:30",30,4.397,247.7,0.853,0.044,21.71,110.3898,25.9,26.8,15.51,0,111.5,13.07,26.74,209.7
"2010-07-13 14:41:00",31,4.276,247.8,1.187,0.072,21.75,110.3909,25.9,26.8,15.57,0,111.5,13.07,26.74,209.8
"2010-07-13 14:41:30",32,4.3,242,2.833,0.129,21.79,110.3875,25.89,26.79,15.7,0,111.5,13.07,26.73,204.0
"2010-07-13 14:42:00",33,4.335,235.3,1.226,0.121,21.84,110.385,25.88,26.78,16.17,0,111.5,13.07,26.73,197.3
"2010-07-13 14:42:30",34,4.49,234.3,0.82,0.087,21.91,110.3895,25.9,26.8,16.17,0,111.5,13.07,26.74,196.3
"2010-07-13 14:43:00",35,4.54,234,1.012,0.229,21.92,110.3912,25.9,26.8,16.19,0,111.5,13.07,26.74,196.0
"2010-07-13 14:43:30",36,4.84,234.4,1.801,0.153,22.1,110.4071,25.94,26.8,15.78,0,111.5,13.07,26.78,196.4
"2010-07-13 14:44:00",37,4.854,235.3,2.632,0.199,22.04,110.4203,25.97,26.81,15.67,0,111.5,13.07,26.82,197.3
"2010-07-13 14:44:30",38,4.724,234.1,1.211,0.077,22.04,110.4368,26.02,26.83,15.66,0,111.5,13.07,26.86,196.1
"2010-07-13 14:45:00",39,4.717,239,1.463,0.053,22.12,110.4511,26.05,26.87,15.49,0,111.5,13.07,26.90,201.0
"2010-07-13 14:45:30",40,4.86,238,1.103,0.109,22.12,110.4631,26.08,26.91,15.33,0,111.5,13.07,26.93,200.0
"2010-07-13 14:46:00",41,4.985,238.3,1.359,0.077,22.12,110.483,26.14,26.92,15.28,0,111.5,13.07,26.98,200.3
"2010-07-13 14:46:30",42,4.994,238.3,1.691,0.08,22.11,110.4863,26.14,26.95,15.24,0,111.5,13.07,26.99,200.3
"2010-07-13 14:47:00",43,5.01,240.9,2.211,0.088,22.18,110.4989,26.18,26.98,15.18,0,111.5,13.07,27.02,202.9
"2010-07-13 14:47:30",44,5.025,240.8,1.093,0.108,22.16,110.5145,26.22,27,15.16,0,111.5,13.07,27.06,202.8
"2010-07-13 14:48:00",45,4.933,243.7,1.307,0.081,22.16,110.516,26.22,27.03,15.17,0,111.5,13.07,27.06,205.7
"2010-07-13 14:48:30",46,4.983,244.1,1.838,0.073,22.15,110.5235,26.24,27.05,15.19,0,111.5,13.07,27.08,206.1
"2010-07-13 14:49:00",47,5.037,242.7,2.119,0.134,22.19,110.5301,26.26,27.07,15.08,0,111.5,13.07,27.10,204.7
"2010-07-13 14:49:30",48,4.949,244,2.373,0.104,22.21,110.5383,26.28,27.08,15.02,0,111.5,13.07,27.12,206.0
"2010-07-13 14:50:00",49,5.029,240.6,1.878,0.068,22.23,110.5433,26.29,27.1,14.99,0,111.5,13.07,27.13,202.6
"2010-07-13 14:50:30",50,4.751,240.7,1.493,0.123,22.18,110.5436,26.29,27.11,15.04,0,111.5,13.06,27.14,202.7
"2010-07-13 14:51:00",51,4.667,238.8,1.493,0.041,22.15,110.5424,26.29,27.14,15.09,0,111.5,13.06,27.13,200.8
"2010-07-13 14:51:30",52,4.608,237.5,1.38,0.05,22.18,110.5432,26.29,27.14,15.07,0,111.5,13.06,27.13,199.5
"2010-07-13 14:52:00",53,4.565,239.1,1.567,0.099,22.19,110.5468,26.3,27.15,15.1,0,111.5,13.06,27.14,201.1
"2010-07-13 14:52:30",54,4.637,237.9,1.594,0.096,22.17,110.5496,26.31,27.16,15.08,0,111.5,13.06,27.15,199.9
"2010-07-13 14:53:00",55,4.508,236.2,1.212,0.091,22.14,110.5502,26.31,27.18,15.04,0,111.5,13.06,27.15,198.2
"2010-07-13 14:53:30",56,4.599,235.9,1.158,0.072,22.15,110.5541,26.32,27.19,14.99,0,111.5,13.06,27.16,197.9
"2010-07-13 14:54:00",57,4.647,235.9,0.75,0.086,22.12,110.5577,26.33,27.18,15.07,0,111.5,13.06,27.17,197.9
"2010-07-13 14:54:30",58,4.628,233.7,0.898,0.103,22.15,110.5608,26.34,27.19,15.09,0,111.5,13.06,27.18,195.7
"2010-07-13 14:55:00",59,4.597,233.5,0.767,0.075,22.13,110.5611,26.34,27.2,15.13,0,111.5,13.07,27.18,195.5
"2010-07-13 14:55:30",60,4.599,232.7,1.333,0.066,22.08,110.5608,26.34,27.2,15.16,0,111.5,13.07,27.18,194.7
"2010-07-13 14:56:00",61,4.53,230,1.226,0.141,21.99,110.5496,26.31,27.19,15.45,0,111.5,13.07,27.15,192.0
"2010-07-13 14:56:30",62,4.545,229.3,2.466,0.14,22.1,110.5415,26.29,27.19,15.42,0,111.5,13.07,27.13,191.3
"2010-07-13 14:57:00",63,4.349,229.9,1.111,0.063,22.21,110.5408,26.28,27.16,15.21,0,111.5,13.07,27.13,191.9
"2010-07-13 14:57:30",64,4.329,229.1,1.163,0.116,22.21,110.5393,26.28,27.16,15.19,0,111.5,13.07,27.12,191.1
"2010-07-13 14:58:00",65,4.424,227.4,1.597,0.147,22.18,110.5397,26.28,27.18,15.1,0,111.5,13.07,27.13,189.4
"2010-07-13 14:58:30",66,4.569,227.8,1.062,0.074,22.2,110.5449,26.3,27.18,14.96,0,111.5,13.07,27.14,189.8
"2010-07-13 14:59:00",67,4.505,223.5,1.67,0.079,22.19,110.5454,26.3,27.18,15.04,0,111.5,13.07,27.14,185.5
"2010-07-13 14:59:30",68,4.648,220.8,0.804,0.104,22.12,110.5501,26.31,27.19,15.08,0,111.5,13.07,27.15,182.8
"2010-07-13 15:00:00",69,4.572,217.6,2.165,0.054,22.12,110.5573,26.33,27.19,15.04,0,111.5,13.07,27.17,179.6
"2010-07-13 15:00:30",70,4.849,215.3,1.63,0.28,22.16,110.5569,26.33,27.18,15.01,0,111.5,13.07,27.17,177.3
"2010-07-13 15:01:00",71,5.117,213.8,4.145,0.162,22.3,110.5635,26.34,27.2,14.8,0,111.5,13.07,27.19,175.8
"2010-07-13 15:01:30",72,4.882,221.3,6.911,0.294,22.32,110.5673,26.35,27.21,14.51,0,111.5,13.06,27.20,183.3
"2010-07-13 15:02:00",73,5.234,208,1.125,0.27,22.11,110.5729,26.37,27.22,14.85,0,111.5,13.07,27.21,170.0
"2010-07-13 15:02:30",74,5.18,207.5,1.038,0.212,22.14,110.5714,26.36,27.22,14.92,0,111.5,13.07,27.21,169.5
"2010-07-13 15:03:00",75,5.037,207,0.95,0.097,22.14,110.5702,26.36,27.22,14.92,0,111.5,13.07,27.20,169.0
"2010-07-13 15:03:30",76,4.804,204,1.546,0.079,22.14,110.5658,26.35,27.22,14.92,0,111.5,13.07,27.19,166.0
"2010-07-13 15:04:00",77,4.826,204.4,2.262,0.113,22.22,110.5651,26.35,27.21,14.74,0,111.5,13.06,27.19,166.4
"2010-07-13 15:04:30",78,4.601,212.7,4.579,0.116,22.13,110.5742,26.37,27.24,14.66,0,111.5,13.06,27.21,174.7
"2010-07-13 15:05:00",79,4.183,220.4,1.615,0.095,22.22,110.576,26.37,27.24,14.64,0,111.5,13.07,27.22,182.4
"2010-07-13 15:05:30",80,4.179,221,1.752,0.222,22.21,110.5848,26.4,27.23,14.63,0,111.5,13.06,27.24,183.0
"2010-07-13 15:06:00",81,3.941,225.8,1.055,0.057,22.28,110.5959,26.43,27.25,14.59,0,111.5,13.06,27.27,187.8
"2010-07-13 15:06:30",82,4.39,221.3,3.82,0.27,22.11,110.5977,26.43,27.26,14.84,0,111.5,13.06,27.27,183.3
"2010-07-13 15:07:00",83,4.968,219.8,2.405,0.177,22.06,110.5957,26.43,27.27,15.13,0,111.5,13.05,27.27,181.8
"2010-07-13 15:07:30",84,5.012,222.9,2.526,0.189,22.19,110.593,26.42,27.26,14.99,0,111.5,13.05,27.26,184.9
"2010-07-13 15:08:00",85,4.722,219.2,4.166,0.189,22.19,110.5958,26.43,27.27,14.97,0,111.5,13.05,27.27,181.2
"2010-07-13 15:08:30",86,4.963,220,3.099,0.239,22.2,110.5931,26.42,27.26,14.98,0,111.5,13.05,27.26,182.0
"2010-07-13 15:09:00",87,5.101,216.9,1.564,0.173,22.2,110.5896,26.41,27.28,14.98,0,111.5,13.05,27.25,178.9
"2010-07-13 15:09:30",88,5.101,217.5,2.968,0.242,22.19,110.5908,26.41,27.28,14.83,0,111.5,13.05,27.26,179.5
"2010-07-13 15:10:00",89,5.372,220,0.893,0.229,22.26,110.5876,26.4,27.29,14.89,0,111.5,13.05,27.25,182.0
"2010-07-13 15:10:30",90,4.991,225.6,3.232,0.19,22.3,110.5901,26.41,27.28,14.71,0,111.5,13.05,27.26,187.6
"2010-07-13 15:11:00",91,5.025,224.9,1.725,0.177,22.33,110.5923,26.42,27.29,14.57,0,111.5,13.05,27.26,186.9
"2010-07-13 15:11:30",92,5.596,227.4,2.219,0.387,22.38,110.5967,26.43,27.3,14.53,0,111.5,13.05,27.27,189.4
"2010-07-13 15:12:00",93,5.833,224.6,2.37,0.181,22.35,110.6143,26.47,27.32,14.52,0,111.5,13.05,27.32,186.6
"2010-07-13 15:12:30",94,5.691,224.3,1.588,0.267,22.37,110.6181,26.48,27.33,14.48,0,111.5,13.06,27.33,186.3
"2010-07-13 15:13:00",95,5.756,223.6,1.487,0.135,22.34,110.6178,26.48,27.35,14.47,0,111.6,13.06,27.33,185.6
"2010-07-13 15:13:30",96,5.928,221.9,1.116,0.152,22.44,110.623,26.5,27.34,14.5,0,111.5,13.06,27.34,183.9
"2010-07-13 15:14:00",97,5.694,222.8,1.746,0.178,22.39,110.6238,26.5,27.37,14.48,0,111.6,13.06,27.34,184.8
"2010-07-13 15:14:30",98,5.628,225.2,1.712,0.339,22.39,110.6257,26.5,27.38,14.49,0,111.5,13.06,27.35,187.2
"2010-07-13 15:15:00",99,5.654,220.9,3.478,0.28,22.44,110.6356,26.53,27.39,14.47,0,111.6,13.06,27.37,182.9
"2010-07-13 15:15:30",100,6.237,222.1,1.437,0.2,22.48,110.6465,26.56,27.4,14.5,0,111.6,13.06,27.40,184.1
"2010-07-13 15:16:00",101,6.243,220.9,1.81,0.293,22.45,110.6486,26.56,27.42,14.5,0,111.6,13.06,27.41,182.9
"2010-07-13 15:16:30",102,5.541,220.8,1.523,0.158,22.48,110.6495,26.56,27.41,14.55,0,111.6,13.06,27.41,182.8
"2010-07-13 15:17:00",103,4.21,226.3,4.686,0.449,22.5,110.6536,26.57,27.43,14.48,0,111.6,13.06,27.42,188.3
"2010-07-13 15:17:30",104,4.601,226.4,3.489,0.356,22.41,110.6573,26.58,27.46,14.54,0,111.6,13.06,27.43,188.4
"2010-07-13 15:18:00",105,5.171,224.1,2.253,0.33,22.37,110.6626,26.6,27.46,14.53,0,111.6,13.06,27.44,186.1
"2010-07-13 15:18:30",106,5.048,226.5,1.844,0.209,22.35,110.666,26.61,27.46,14.6,0,111.6,13.06,27.45,188.5
"2010-07-13 15:19:00",107,4.896,222.9,3.206,0.202,22.35,110.6657,26.61,27.47,14.62,0,111.6,13.06,27.45,184.9
"2010-07-13 15:19:30",108,4.588,222.7,1.987,0.442,22.31,110.6581,26.59,27.47,14.69,0,111.6,13.05,27.43,184.7
"2010-07-13 15:20:00",109,4.924,222.1,3.482,0.278,22.3,110.657,26.58,27.47,14.77,0,111.6,13.06,27.43,184.1
"2010-07-13 15:20:30",110,4.584,222.2,3.499,0.206,22.29,110.6567,26.58,27.48,14.82,0,111.6,13.06,27.43,184.2
"2010-07-13 15:21:00",111,4.566,227.4,3.8,0.156,22.29,110.6559,26.58,27.46,14.93,0,111.6,13.06,27.42,189.4
"2010-07-13 15:21:30",112,4.285,223.2,1.928,0.161,22.32,110.6545,26.58,27.47,14.83,0,111.6,13.05,27.42,185.2
"2010-07-13 15:22:00",113,4.694,217,2.207,0.233,22.21,110.6536,26.57,27.45,14.89,0,111.6,13.05,27.42,179.0
"2010-07-13 15:22:30",114,5.315,218.7,4.281,0.384,22.23,110.6483,26.56,27.46,14.99,0,111.6,13.05,27.41,180.7
"2010-07-13 15:23:00",115,5.952,229.3,6.763,0.386,22.38,110.6483,26.56,27.46,15.11,0,111.6,13.05,27.41,191.3
"2010-07-13 15:23:30",116,6.318,227.4,7.377,0.217,22.41,110.6483,26.56,27.45,15.03,0,111.6,13.05,27.41,189.4
"2010-07-13 15:24:00",117,6.058,228.4,6.042,0.359,22.48,110.6545,26.58,27.47,14.78,0,111.6,13.05,27.42,190.4
"2010-07-13 15:24:30",118,5.849,223.6,4.747,0.262,22.47,110.6623,26.6,27.46,14.67,0,111.6,13.05,27.44,185.6
"2010-07-13 15:25:00",119,5.502,225.6,3.538,0.253,22.57,110.6802,26.64,27.47,14.6,0,111.6,13.05,27.49,187.6
"2010-07-13 15:25:30",120,5.375,230.9,4.388,0.467,22.61,110.6836,26.65,27.49,14.69,0,111.6,13.05,27.50,192.9
"2010-07-13 15:26:00",121,5.248,230.8,3.827,0.485,22.55,110.6908,26.67,27.51,14.98,0,111.6,13.05,27.51,192.8
"2010-07-13 15:26:30",122,5.134,244.2,3.753,0.38,22.53,110.6939,26.68,27.52,15.16,0,111.6,13.05,27.52,206.2
"2010-07-13 15:27:00",123,5.668,231.1,4.095,0.268,22.48,110.7026,26.7,27.53,14.99,0,111.6,13.05,27.55,193.1
"2010-07-13 15:27:30",124,5.468,229.4,1.581,0.137,22.47,110.7032,26.7,27.55,14.76,0,111.6,13.05,27.55,191.4
"2010-07-13 15:28:00",125,5.487,231.3,2.307,0.217,22.53,110.7054,26.71,27.56,14.71,0,111.6,13.05,27.55,193.3
"2010-07-13 15:28:30",126,5.509,232.2,3.158,0.298,22.48,110.7135,26.73,27.57,14.74,0,111.6,13.05,27.57,194.2
"2010-07-13 15:29:00",127,6.053,238,5.687,0.319,22.52,110.713,26.73,27.55,15.04,0,111.6,13.05,27.57,200.0
"2010-07-13 15:29:30",128,5.956,240.1,3.008,0.298,22.5,110.7141,26.73,27.57,15.21,0,111.6,13.05,27.58,202.1
"2010-07-13 15:30:00",129,5.967,243.5,1.286,0.138,22.59,110.7152,26.73,27.57,15.32,0,111.6,13.05,27.58,205.5
"2010-07-13 15:30:30",130,6.001,245.1,3.849,0.178,22.57,110.7155,26.73,27.58,15.49,0,111.6,13.05,27.58,207.1
"2010-07-13 15:31:00",131,5.594,246.7,2.424,0.171,22.51,110.7155,26.73,27.58,15.64,0,111.6,13.05,27.58,208.7
"2010-07-13 15:31:30",132,5.597,246.9,2.986,0.211,22.57,110.716,26.73,27.6,15.56,0,111.6,13.05,27.58,208.9
"2010-07-13 15:32:00",133,5.846,246.3,1.511,0.17,22.59,110.7177,26.74,27.6,15.56,0,111.6,13.05,27.58,208.3
"2010-07-13 15:32:30",134,6.056,245.9,2.447,0.163,22.52,110.7222,26.75,27.6,15.76,0,111.6,13.05,27.60,207.9
"2010-07-13 15:33:00",135,5.984,243.2,2.266,0.234,22.47,110.7188,26.74,27.61,15.9,0,111.6,13.05,27.59,205.2
"2010-07-13 15:33:30",136,6.16,244.8,2.544,0.276,22.57,110.7152,26.73,27.6,15.83,0,111.6,13.05,27.58,206.8
"2010-07-13 15:34:00",137,6.615,248,2.054,0.216,22.64,110.7169,26.74,27.6,15.6,0,111.6,13.05,27.58,210.0
"2010-07-13 15:34:30",138,6.407,249.2,1.328,0.173,22.69,110.723,26.75,27.6,15.41,0,111.6,13.05,27.60,211.2
"2010-07-13 15:35:00",139,6.053,248.1,1.969,0.104,22.64,110.7334,26.78,27.63,15.43,0,111.6,13.05,27.62,210.1
"2010-07-13 15:35:30",140,5.8,248.9,3.448,0.144,22.64,110.7457,26.81,27.64,15.38,0,111.6,13.05,27.66,210.9
"2010-07-13 15:36:00",141,5.592,245,2.908,0.233,22.6,110.7488,26.82,27.65,15.3,0,111.6,13.05,27.66,207.0
"2010-07-13 15:36:30",142,5.39,244.8,1.902,0.156,22.61,110.7491,26.82,27.67,15.2,0,111.6,13.05,27.67,206.8
"2010-07-13 15:37:00",143,5.639,242.8,2.028,0.112,22.57,110.7487,26.82,27.66,15.33,0,111.6,13.05,27.66,204.8
"2010-07-13 15:37:30",144,5.707,248.4,3.792,0.13,22.64,110.7544,26.83,27.68,15.17,0,111.6,13.05,27.68,210.4
"2010-07-13 15:38:00",145,6.135,249,2.247,0.154,22.68,110.7611,26.85,27.68,14.95,0,111.6,13.05,27.70,211.0
"2010-07-13 15:38:30",146,6.281,250.7,1.115,0.173,22.67,110.7745,26.89,27.69,14.87,0,111.6,13.05,27.73,212.7
"2010-07-13 15:39:00",147,6.133,250.4,3.475,0.121,22.67,110.7796,26.9,27.72,14.77,0,111.6,13.05,27.74,212.4
"2010-07-13 15:39:30",148,6.307,247.8,2.271,0.145,22.7,110.7829,26.91,27.73,14.7,0,111.6,13.05,27.75,209.8
"2010-07-13 15:40:00",149,6.173,247.3,0.913,0.146,22.66,110.7896,26.92,27.75,14.62,0,111.6,13.05,27.77,209.3
"2010-07-13 15:40:30",150,5.912,247.6,1.387,0.178,22.63,110.7904,26.93,27.76,14.66,0,111.6,13.05,27.77,209.6
"2010-07-13 15:41:00",151,5.757,247.6,3.399,0.144,22.68,110.7947,26.94,27.79,14.65,0,111.5,13.05,27.78,209.6
"2010-07-13 15:41:30",152,6.144,252.2,3.311,0.223,22.75,110.8064,26.97,27.78,14.61,0,111.6,13.05,27.81,214.2
"2010-07-13 15:42:00",153,6.006,253,2.62,0.349,22.72,110.8142,26.99,27.79,14.68,0,111.5,13.05,27.83,215.0
"2010-07-13 15:42:30",154,5.816,246.6,5.473,0.43,22.6,110.8143,26.99,27.81,14.93,0,111.6,13.04,27.83,208.6
"2010-07-13 15:43:00",155,5.591,248,2.281,0.311,22.6,110.8078,26.97,27.81,15.02,0,111.6,13.04,27.82,210.0
"2010-07-13 15:43:30",156,5.823,251.1,3.333,0.367,22.67,110.7954,26.94,27.8,15.16,0,111.5,13.04,27.78,213.1
"2010-07-13 15:44:00",157,6.109,248.6,5.994,0.168,22.71,110.7989,26.95,27.8,14.79,0,111.6,13.04,27.79,210.6
"2010-07-13 15:44:30",158,5.959,244.2,3.754,0.343,22.67,110.8084,26.97,27.81,14.83,0,111.6,13.04,27.82,206.2
"2010-07-13 15:45:00",159,5.848,250.8,1.699,0.13,22.63,110.8098,26.98,27.82,14.9,0,111.6,13.04,27.82,212.8
"2010-07-13 15:45:30",160,5.893,247.6,1.896,0.186,22.68,110.8077,26.97,27.82,14.81,0,111.6,13.04,27.82,209.6
"2010-07-13 15:46:00",161,5.825,250.6,3.39,0.187,22.7,110.8091,26.97,27.8,14.77,0,111.6,13.05,27.82,212.6
"2010-07-13 15:46:30",162,5.36,245.1,5.065,0.383,22.55,110.8131,26.98,27.82,15.01,0,111.6,13.05,27.83,207.1
"2010-07-13 15:47:00",163,5.49,239.9,2.18,0.13,22.42,110.7945,26.94,27.81,16.09,0,111.5,13.05,27.78,201.9
"2010-07-13 15:47:30",164,5.613,235.5,1.569,0.182,22.45,110.7805,26.9,27.79,16.14,0,111.5,13.05,27.75,197.5
"2010-07-13 15:48:00",165,5.647,238.7,2.082,0.207,22.54,110.7762,26.89,27.78,15.38,0,111.6,13.05,27.74,200.7
"2010-07-13 15:48:30",166,5.425,240.2,1.218,0.261,22.59,110.7735,26.88,27.77,15.06,0,111.6,13.05,27.73,202.2
"2010-07-13 15:49:00",167,5.608,233.9,2.94,0.215,22.56,110.7731,26.88,27.76,15.1,0,111.6,13.05,27.73,195.9
"2010-07-13 15:49:30",168,5.553,228.4,3.007,0.225,22.21,110.7528,26.83,27.76,17.62,0,111.6,13.05,27.67,190.4
"2010-07-13 15:50:00",169,5.693,233.9,5.206,0.327,22.49,110.7219,26.75,27.71,16.78,0,111.6,13.05,27.60,195.9
"2010-07-13 15:50:30",170,5.483,244,6.312,0.261,22.63,110.7164,26.74,27.68,15.71,0,111.6,13.05,27.58,206.0
"2010-07-13 15:51:00",171,5.486,240.8,3.099,0.157,22.56,110.7177,26.74,27.67,15.44,0,111.6,13.05,27.58,202.8
"2010-07-13 15:51:30",172,5.173,239.2,2.967,0.244,22.53,110.7177,26.74,27.65,16.08,0,111.6,13.05,27.58,201.2
"2010-07-13 15:52:00",173,4.414,248.6,7.297,0.445,22.71,110.7296,26.77,27.65,15.55,0,111.6,13.05,27.62,210.6
"2010-07-13 15:52:30",174,5.005,241.5,5.273,0.491,22.56,110.7441,26.81,27.68,15.49,0,111.5,13.05,27.65,203.5
"2010-07-13 15:53:00",175,5.352,234.3,4.133,0.285,22.57,110.7448,26.81,27.66,15.22,0,111.6,13.05,27.65,196.3
"2010-07-13 15:53:30",176,5.464,239.4,4.967,0.383,22.63,110.7509,26.82,27.7,15.3,0,111.6,13.05,27.67,201.4
"2010-07-13 15:54:00",177,5.242,234.1,2.777,0.571,22.58,110.7683,26.87,27.7,15.3,0,111.6,13.05,27.71,196.1
"2010-07-13 15:54:30",178,5.434,236.2,4.63,0.233,22.57,110.7719,26.88,27.72,15.68,0,111.6,13.05,27.72,198.2
"2010-07-13 15:55:00",179,5.132,230.7,2.45,0.329,22.54,110.7681,26.87,27.71,16.5,0,111.6,13.05,27.71,192.7
"2010-07-13 15:55:30",180,5.214,238.3,3.952,0.359,22.79,110.77,26.87,27.73,15.19,0,111.6,13.05,27.72,200.3
"2010-07-13 15:56:00",181,5.077,244.3,5.625,0.445,22.81,110.7798,26.9,27.73,15.21,0,111.6,13.05,27.74,206.3
"2010-07-13 15:56:30",182,5.437,236.9,3.977,0.585,22.7,110.7994,26.95,27.76,14.96,0,111.6,13.05,27.80,198.9
"2010-07-13 15:57:00",183,5.691,228,2.924,0.244,22.53,110.8076,26.97,27.77,16.03,0,111.6,13.05,27.82,190.0
"2010-07-13 15:57:30",184,6.13,223.2,3.912,0.191,22.51,110.8023,26.96,27.8,16.48,0,111.6,13.05,27.80,185.2
"2010-07-13 15:58:00",185,6.115,223.3,3.111,0.277,22.54,110.786,26.91,27.78,16.51,0,111.6,13.05,27.76,185.3
"2010-07-13 15:58:30",186,5.727,226.2,2.719,0.314,22.67,110.7818,26.9,27.78,15.03,0,111.6,13.05,27.75,188.2
"2010-07-13 15:59:00",187,5.257,227.2,3.443,0.436,22.72,110.7823,26.91,27.78,15.52,0,111.6,13.04,27.75,189.2
"2010-07-13 15:59:30",188,5.72,228,4.607,0.38,22.73,110.7925,26.93,27.78,15.24,0,111.6,13.04,27.78,190.0
"2010-07-13 16:00:00",189,5.611,230.2,5.856,0.485,22.56,110.7921,26.93,27.79,15.95,0,111.6,13.04,27.78,192.2
"2010-07-13 16:00:30",190,5.633,226.9,5.6,0.35,22.45,110.7767,26.89,27.78,17.68,0,111.6,13.04,27.74,188.9
"2010-07-13 16:01:00",191,5.34,224,4.593,0.442,22.63,110.7659,26.86,27.75,16.63,0,111.6,13.04,27.71,186.0
"2010-07-13 16:01:30",192,5.104,222.6,3.885,0.345,22.64,110.7622,26.85,27.73,17.18,0,111.6,13.04,27.70,184.6
"2010-07-13 16:02:00",193,5.42,224.9,4.143,0.292,22.57,110.749,26.82,27.72,18.35,0,111.6,13.04,27.67,186.9
"2010-07-13 16:02:30",194,5.293,232,3.916,0.362,22.72,110.7485,26.82,27.7,15.38,0,111.6,13.04,27.66,194.0
"2010-07-13 16:03:00",195,6.065,230.2,2.549,0.193,22.56,110.765,26.86,27.71,17.36,0,111.6,13.04,27.71,192.2
"2010-07-13 16:03:30",196,6.205,225.4,3.588,0.203,22.6,110.7504,26.82,27.73,19.12,0,111.6,13.04,27.67,187.4
"2010-07-13 16:04:00",197,6.413,224,2.954,0.337,22.49,110.7423,26.8,27.71,21.07,0,111.6,13.05,27.65,186.0
"2010-07-13 16:04:30",198,6.223,221.6,5.174,0.388,22.58,110.7165,26.74,27.69,21.05,0,111.6,13.05,27.58,183.6
"2010-07-13 16:05:00",199,5.417,223.8,1.993,0.311,22.6,110.7062,26.71,27.63,20.81,0,111.6,13.05,27.55,185.8
"2010-07-13 16:05:30",200,5.16,219.9,1.944,0.16,22.78,110.7059,26.71,27.63,17.57,0,111.6,13.05,27.55,181.9
"2010-07-13 16:06:00",201,5.031,214.7,4.822,0.325,22.71,110.7235,26.75,27.64,16.17,0,111.6,13.05,27.60,176.7
"2010-07-13 16:06:30",202,5.736,215.7,3.978,0.324,22.48,110.7319,26.78,27.65,18.61,0,111.6,13.05,27.62,177.7
"2010-07-13 16:07:00",203,5.859,212.3,2.299,0.32,22.57,110.7196,26.74,27.63,16.89,0,111.6,13.05,27.59,174.3
"2010-07-13 16:07:30",204,5.377,212.7,1.729,0.224,22.66,110.7333,26.78,27.64,15.45,0,111.6,13.05,27.62,174.7
"2010-07-13 16:08:00",205,5.165,212.9,4.994,0.31,22.8,110.7448,26.81,27.66,15.17,0,111.6,13.05,27.65,174.9
"2010-07-13 16:08:30",206,4.995,221.6,3.843,0.293,22.77,110.7689,26.87,27.67,15.16,0,111.6,13.05,27.72,183.6
"2010-07-13 16:09:00",207,4.287,216.8,3.399,0.212,22.72,110.782,26.9,27.72,15.13,0,111.6,13.05,27.75,178.8
"2010-07-13 16:14:30",218,4.74,211.8,2.242,0.241,22.53,110.8735,27.14,27.95,15.07,0,111.6,13.05,27.99,173.8
"2010-07-13 16:15:00",219,4.793,207.8,2.411,0.176,22.57,110.8548,27.09,27.94,14.35,0,111.6,13.05,27.94,169.8
"2010-07-13 16:15:30",220,4.788,201.9,2.242,0.155,22.64,110.853,27.09,27.93,14.42,0,111.6,13.04,27.93,163.9
"2010-07-13 16:16:00",221,5.169,204,3.216,0.335,22.62,110.8524,27.09,27.94,14.44,0,111.6,13.04,27.93,166.0
"2010-07-13 16:16:30",222,5.565,200.2,2.676,0.202,22.62,110.8545,27.09,27.94,14.4,0,111.6,13.04,27.94,162.2
"2010-07-13 16:17:00",223,5.481,199.6,2.893,0.156,22.65,110.8533,27.09,27.95,14.5,0,111.6,13.04,27.93,161.6
"2010-07-13 16:17:30",224,5.435,202.2,2.386,0.199,22.62,110.8564,27.1,27.94,15.19,0,111.6,13.04,27.94,164.2
"2010-07-13 16:18:00",225,5.656,207.6,4.066,0.267,22.53,110.8534,27.09,27.95,16.85,0,111.6,13.04,27.93,169.6
"2010-07-13 16:18:30",226,5.636,202.8,2.723,0.278,22.61,110.8484,27.08,27.94,17.49,0,111.6,13.04,27.92,164.8
"2010-07-13 16:19:00",227,5.279,207,5.181,0.31,22.65,110.8423,27.06,27.92,16.72,0,111.6,13.04,27.91,169.0
"2010-07-13 16:19:30",228,5.146,211.9,2.699,0.213,22.78,110.8462,27.07,27.91,14.61,0,111.6,13.04,27.92,173.9
"2010-07-13 16:20:00",229,4.823,214.9,2.311,0.292,22.81,110.8535,27.09,27.93,14.54,0,111.6,13.04,27.93,176.9
"2010-07-13 16:20:30",230,5.078,214.6,2.276,0.239,22.8,110.8613,27.11,27.95,15.02,0,111.6,13.04,27.95,176.6
"2010-07-13 16:21:00",231,4.833,216.8,4.276,0.26,22.84,110.8801,27.16,27.98,14.58,0,111.6,13.04,28.00,178.8
"2010-07-13 16:21:30",232,5,220.4,4.842,0.476,22.78,110.8885,27.18,27.98,14.9,0,111.6,13.04,28.02,182.4
"2010-07-13 16:22:00",233,4.697,217.4,6.457,0.236,22.83,110.8918,27.19,28.02,16.06,0,111.6,13.05,28.03,179.4
"2010-07-13 16:22:30",234,4.619,216.6,4.918,0.391,22.85,110.8921,27.19,28.02,15.25,0,111.6,13.05,28.03,178.6
"2010-07-13 16:23:00",235,5.274,210.3,4.294,0.209,22.79,110.9005,27.21,28.04,14.38,0,111.6,13.05,28.06,172.3
"2010-07-13 16:23:30",236,4.878,216.5,3.542,0.263,22.81,110.9064,27.22,28.05,14.6,0,111.6,13.05,28.07,178.5
"2010-07-13 16:24:00",237,5.815,211.8,2.663,0.172,22.82,110.9151,27.25,28.07,14.5,0,111.6,13.05,28.09,173.8
"2010-07-13 16:24:30",238,5.36,220,1.682,0.232,22.88,110.919,27.26,28.07,14.47,0,111.6,13.05,28.10,182.0
"2010-07-13 16:25:00",239,5.249,213.2,6.51,0.288,22.83,110.9254,27.27,28.1,14.28,0,111.6,13.05,28.12,175.2
"2010-07-13 16:25:30",240,5.289,198.8,2.266,0.182,22.78,110.9254,27.27,28.11,14.9,0,111.6,13.05,28.12,160.8